This demonstration page uses our WeatherBlox Daily Observations layout. Learn more.

Left ArrowRight Arrow

39.29038, -76.61219

Hourly Observations for January 28, 2022

Temp ( °F °C ) Dew Point ( °F °C ) Humidity (%) Winds ( mph kmh ) Pressure ( in mb ) Visibility ( mi km ) Precip ( " mm )
12:54 am 00:54 Cloudy 31 -0.6 17 -8.3 56 56 Calm 30.20 1023 10 16 0.00 0.00
1:54 am 01:54 Cloudy 31 -0.6 17 -8.3 56 56 Calm 30.19 1022 10 16 0.00 0.00
2:54 am 02:54 Cloudy 31 -0.6 18 -7.8 59 59 Calm 30.16 1021 10 16 0.00 0.00
3:54 am 03:54 Cloudy 30 -1.1 18 -7.8 61 61 Calm 30.14 1021 10 16 0.00 0.00
4:54 am 04:54 Cloudy 30 -1.1 17 -8.3 58 58 Calm 30.13 1020 10 16 0.00 0.00
5:54 am 05:54 Cloudy 30 -1.1 19 -7.2 64 64 NE 3 6 30.13 1020 10 16 0.00 0.00
6:54 am 06:54 Cloudy 32 0 18 -7.8 56 56 Calm 30.13 1020 10 16 0.00 0.00
7:54 am 07:54 Cloudy 31 -0.6 19 -7.2 61 61 Calm 30.13 1020 10 16 0.00 0.00
8:54 am 08:54 Cloudy 33 0.6 19 -7.2 56 56 Calm 30.13 1020 10 16 0.00 0.00
9:46 am 09:46 Cloudy 34 1.1 19 -7.2 54 54 ENE 5 7 30.14 1021 10 16 0.00 0.00
9:54 am 09:54 Cloudy 35 1.7 19 -7.2 52 52 ENE 5 7 30.14 1021 10 16 0.00 0.00
10:07 am 10:07 Cloudy with Light Snow 35 1.7 21 -6.1 57 57 E 7 11 30.15 1021 5 8 0.00 0.00
10:27 am 10:27 Cloudy 36 2.2 23 -5 59 59 E 8 13 30.15 1021 9 14 0.00 0.00
10:54 am 10:54 Mostly Cloudy 37 2.8 26 -3.3 65 65 E 8 13 30.14 1021 10 16 0.00 0.00
11:50 am 11:50 Cloudy 37 3 28 -2 70 70 NE 6 9 30.11 1020 10 16 0.00 0.00
11:54 am 11:54 Cloudy 38 3.3 28 -2.2 68 68 VRB 5 7 30.11 1020 10 16 0.00 0.00
12:54 pm 12:54 Cloudy 37 2.8 29 -1.7 73 73 NE 6 9 30.06 1018 10 16 0.00 0.00
1:54 pm 13:54 Cloudy with Light Snow 36 2.2 29 -1.7 76 76 ENE 7 11 30.04 1017 5 8 0.00 0.00
2:09 pm 14:09 Cloudy with Light Snow 36 2.2 30 -1.1 79 79 ENE 7 11 30.04 1017 2 3 0.00 0.00
2:24 pm 14:24 Cloudy with Light Snow 35 1.7 31 -0.6 85 85 ENE 7 11 30.03 1017 2 2 0.00 0.00
2:54 pm 14:54 Cloudy with Light Snow 35 1.7 31 -0.6 85 85 E 5 7 30.02 1017 2 3 0.00 0.00
3:11 pm 15:11 Cloudy with Light Snow 35 1.7 32 0 89 89 E 6 9 30.02 1017 2 3 0.01 0.25
3:54 pm 15:54 Cloudy with Light Snow 34 1.1 31 -0.6 89 89 NE 8 13 30.00 1016 3 4 0.01 0.25
4:15 pm 16:15 Cloudy with Light Snow 34 1.1 32 0 92 92 ENE 8 13 30.00 1016 2 3 0.00 0.00
4:23 pm 16:23 Cloudy with Light Snow 34 1.1 31 -0.6 89 89 ENE 9 15 30.00 1016 1 2 0.00 0.00
4:51 pm 16:51 Cloudy with Light Snow 34 1 30 -1 87 87 E 9 15 29.99 1016 1 2 0.01 0.25
4:54 pm 16:54 Cloudy with Light Snow 34 1.1 31 -0.6 89 89 E 9 15 29.99 1016 1 2 0.01 0.25
5:30 pm 17:30 Cloudy with Light Snow 34 1.1 31 -0.6 89 89 ENE 8 13 29.99 1016 2 3 0.01 0.25
5:38 pm 17:38 Cloudy with Light Snow 34 1.1 32 0 92 92 ENE 7 11 29.99 1016 2 3 0.01 0.25
5:54 pm 17:54 Cloudy with Light Snow 34 1.1 32 0 92 92 ENE 7 11 29.98 1015 2 3 0.01 0.25
6:30 pm 18:30 Cloudy with Light Snow 33 0.6 32 0 96 96 NE 8 13 29.99 1016 1 2 0.01 0.25
6:54 pm 18:54 Cloudy with Light Snow 33 0.6 32 0 96 96 NE 6 9 29.99 1016 1 2 0.02 0.51
7:54 pm 19:54 Cloudy with Light Snow 33 0.6 31 -0.6 92 92 N 8 13 29.98 1015 1 2 0.02 0.51
8:41 pm 20:41 Cloudy with Light Snow 33 0.6 30 -1.1 89 89 NNE 8 13 29.97 1015 2 2 0.02 0.51
8:54 pm 20:54 Cloudy with Light Snow 33 0.6 30 -1.1 89 89 NNE 6 9 29.96 1015 2 2 0.02 0.51
9:54 pm 21:54 Cloudy with Light Snow 32 0 30 -1.1 92 92 N 7 11 29.94 1014 1 2 0.01 0.25
10:13 pm 22:13 Cloudy with Light Snow 32 0 29 -1.7 88 88 N 9 15 29.94 1014 1 2 0.01 0.25
10:32 pm 22:32 Cloudy with Light Snow 32 0 29 -1.7 88 88 N 6 9 29.94 1014 2 3 0.01 0.25
10:42 pm 22:42 Cloudy with Light Snow 32 0 29 -1.7 88 88 N 7 11 29.93 1014 2 3 0.01 0.25
10:54 pm 22:54 Cloudy with Light Snow 32 0 29 -1.7 88 88 N 8 13 29.92 1013 2 2 0.02 0.51
11:54 pm 23:54 Cloudy with Light Snow 31 -0.6 29 -1.7 92 92 N 8 13 29.91 1013 1 1 0.01 0.25

Powered by AerisWeather